Hourly Weather Roundup
Issued by NWS Central Illinois

Home | Current Version | Previous Version | Text Only | Print | Product List | Glossary On
Versions: 1 2 3 4 5 6 7 8 9 10 11 12 13 14 15 16 17 18 19 20 21 22 23 24 25 26 27 28 29 30 31 32 33 34 35 36 37 38 39 40 41 42 43 44 45 46 47 48 49 50
000
NZUS43 KILX 201110
HWRILX

Area Weather Roundup
National Weather Service Lincoln IL
500 AM CST SAT JAN 20 2018

NOTE:  "FAIR" indicates few or no clouds below 12,000 feet, with
       no sigificant weather and/or obstructions to visibility.


CITY           SKY/WX    TMP DP  RH WIND       PRES   REMARKS
Bloomington    FAIR      32  28  85 SW14      29.91R WCI  22
Champaign      FAIR      30  26  85 S10       29.95R WCI  21
Danville       FAIR      30  25  81 SW15      29.93R WCI  19
Decatur        FAIR      33  28  81 SW17      29.95R WCI  22
Effingham      FAIR      34  27  75 S9        30.02S WCI  27
Flora          FAIR      34  26  74 SW8       30.04S WCI  27
Galesburg      FAIR      35  30  84 SW9       29.87S WCI  27
Jacksonville   CLOUDY    33  27  76 S7        29.93R WCI  27
Lacon          FAIR      34  27  75 SW8       29.88R WCI  28
Lawrenceville  FAIR      28  20  71 S10       30.06S WCI  19
Litchfield     CLOUDY    30  27  89 S9        29.98R WCI  22
$$


CITY           SKY/WX    TMP DP  RH WIND       PRES   REMARKS
Lincoln        FAIR      32  29  90 S6        29.93R WCI  26
Macomb         CLOUDY    37  30  78 SW9       29.90S WCI  30
Mattoon        FAIR      31  26  82 S12       29.97R WCI  22
Mt Carmel AP   FAIR      31  20  64 SW7       30.06S WCI  25
Olney-Noble AP FAIR      32  22  66 S5        30.05S WCI  27
Paris AP       FAIR      32  27  80 S17       29.99R WCI  21
Peoria         FAIR      30  25  81 S6        29.90R WCI  24
Pontiac        FAIR      35  31  84 SW12      29.90R WCI  27
Rantoul        FAIR      34  30  85 SW16      29.93R WCI  24
Robinson       FAIR      32  24  70 SW12      30.05S WCI  23
Springfield    FAIR      35  28  75 S14       29.94R WCI  26
Taylorville    FAIR      31  27  84 S10       29.96S WCI  22
$$

...REGIONAL REPORTS...


CITY           SKY/WX    TMP DP  RH WIND       PRES   REMARKS
Chicago O`Hare CLOUDY    36  27  69 SW8       29.83R WCI  30
Kankakee       FAIR     N/A N/A N/A SW8       29.90R
Moline         FAIR      35  28  75 SW3       29.84R
Mount Sterling CLOUDY    39  30  70 SW10      29.90R WCI  32
Mount Vernon   FAIR      32  26  78 SW12      30.05S WCI  23
Pittsfield     CLOUDY    40  32  74 SW9       29.93S WCI  33
Quincy         CLOUDY    37  30  75 SW13      29.90R WCI  29
Rockford       FAIR      34  27  75 SW6       29.84S WCI  29
$$


CITY           SKY/WX    TMP DP  RH WIND       PRES   REMARKS
Burlington     CLOUDY    34  27  75 SW9       29.86S WCI  27
Cedar Rapids   FAIR      32  26  78 SW6       29.82R WCI  26
Des Moines     MOCLDY    31  26  82 S5        29.82S WCI  26
Kirksville     CLOUDY    38  34  85 SW9       29.88R WCI  31
Ottumwa        CLOUDY    35  27  72 SW6       29.84R WCI  30
St Louis       CLOUDY    33  28  81 SE6       29.98S WCI  28
$$


CITY           SKY/WX    TMP DP  RH WIND       PRES   REMARKS
Terre Haute    FAIR      32  21  64 S9        30.02R WCI  24
Evansville     FAIR      34  20  56 SW10      30.10R WCI  26
Indianapolis   FAIR      34  24  67 SW15      30.00R WCI  24
Lafayette      FAIR      32  25  75 SW9       29.95R WCI  24
Madison        FAIR      32  26  78 S3        29.80R
Milwaukee      MOCLDY    38  29  70 SW6       29.79R WCI  33
$$





USA.gov is the U.S. government's official web portal to all federal, state and local government web resources and services.